Location: ??????
(38.1303°N, 24.0039°E)
Time: 05:44:27
(UTC+00:00)

Cosmos 2082 Rocket - Pass Details

Date: 20 June 2021
Orbit: 832 x 854 km, 71.0° (Epoch: 30 July)

Event Time Altitude Azimuth Distance (km) Brightness Sun altitude
Exits shadow 01:19:44 - 161° (SSE) 3,242 4.9 -16.1°
Reaches altitude 10° 01:22:22 10° 147° (SSE) 2,432 4.4 -15.8°
Maximum altitude 01:26:24 21° 100° (E) 1,797 4.3 -15.2°
Drops below altitude 10° 01:30:27 10° 54° (NE) 2,444 6.0 -14.7°
Sets 01:33:27 0° 39° (NE) 3,384 7.3 -14.3°
